| time (UTC) | temp C | wind direction | speed KPH | gust KPH | rain 1hr cm | rain 24hr cm | rain mn cm | humidity % | barometer mb |
| 20260506104046 | 23 | 194 | 3.2 | 4.8 | 0.00 | 0.00 | 0.00 | 97 | 1010.1 |
| 20260506103532 | 23 | 205 | 4.8 | 8.0 | 0.00 | 0.00 | 0.00 | 97 | 1010.0 |
| 20260506103020 | 23 | 190 | 6.4 | 9.7 | 0.00 | 0.00 | 0.00 | 97 | 1010.0 |
| 20260506102527 | 23 | 196 | 4.8 | 8.0 | 0.00 | 0.00 | 0.00 | 97 | 1009.9 |
| 20260506102015 | 23 | 182 | 4.8 | 8.0 | 0.00 | 0.00 | 0.00 | 96 | 1009.8 |
| 20260506101522 | 23 | 180 | 6.4 | 8.0 | 0.00 | 0.00 | 0.00 | 96 | 1009.8 |
| 20260506101028 | 23 | 205 | 4.8 | 11.3 | 0.00 | 0.00 | 0.00 | 96 | 1009.7 |
| 20260506100516 | 23 | 195 | 6.4 | 9.7 | 0.00 | 0.00 | 0.00 | 96 | 1009.7 |
| 20260506100023 | 23 | 207 | 4.8 | 9.7 | 0.00 | 0.00 | 0.00 | 96 | 1009.8 |
| 20260506095529 | 23 | 160 | 8.0 | 11.3 | 0.00 | 0.00 | 0.00 | 96 | 1009.8 |
| 20260506095018 | 23 | 196 | 6.4 | 8.0 | 0.00 | 0.00 | 0.00 | 96 | 1009.6 |
| 20260506094524 | 23 | 187 | 4.8 | 9.7 | 0.00 | 0.00 | 0.00 | 96 | 1009.5 |
| 20260506094111 | 23 | 182 | 6.4 | 11.3 | 0.00 | 0.00 | 0.00 | 96 | 1009.4 |
| 20260506093519 | 23 | 225 | 4.8 | 9.7 | 0.00 | 0.00 | 0.00 | 96 | 1009.3 |
| 20260506093026 | 23 | 200 | 6.4 | 9.7 | 0.00 | 0.00 | 0.00 | 96 | 1009.3 |
| 20260506092532 | 23 | 157 | 3.2 | 6.4 | 0.00 | 0.00 | 0.00 | 96 | 1009.3 |
| 20260506092021 | 23 | 163 | 6.4 | 11.3 | 0.00 | 0.00 | 0.00 | 96 | 1009.3 |
| 20260506091528 | 23 | 184 | 6.4 | 11.3 | 0.00 | 0.00 | 0.00 | 96 | 1009.2 |
| 20260506091016 | 23 | 192 | 6.4 | 12.9 | 0.00 | 0.00 | 0.00 | 96 | 1009.1 |
| 20260506090522 | 23 | 190 | 8.0 | 12.9 | 0.00 | 0.00 | 0.00 | 96 | 1009.1 |
| 20260506090049 | 23 | 175 | 9.7 | 12.9 | 0.00 | 0.00 | 0.00 | 96 | 1008.8 |
| 20260506085517 | 23 | 191 | 8.0 | 12.9 | 0.00 | 0.00 | 0.00 | 96 | 1008.8 |
| 20260506085024 | 23 | 171 | 8.0 | 12.9 | 0.00 | 0.00 | 0.00 | 96 | 1009.0 |
| 20260506084530 | 23 | 188 | 6.4 | 9.7 | 0.00 | 0.00 | 0.00 | 96 | 1009.1 |
| 20260506084019 | 23 | 196 | 8.0 | 17.7 | 0.00 | 0.00 | 0.00 | 96 | 1009.0 |
| 20260506083525 | 23 | 168 | 12.9 | 19.3 | 0.00 | 0.00 | 0.00 | 96 | 1008.9 |
| 20260506083032 | 23 | 175 | 11.3 | 17.7 | 0.00 | 0.00 | 0.00 | 96 | 1008.9 |
| 20260506082520 | 23 | 190 | 9.7 | 16.1 | 0.00 | 0.00 | 0.00 | 96 | 1008.8 |
| 20260506082107 | 23 | 189 | 12.9 | 17.7 | 0.00 | 0.00 | 0.00 | 96 | 1008.8 |
| 20260506081515 | 23 | 192 | 9.7 | 17.7 | 0.00 | 0.00 | 0.00 | 96 | 1008.9 |
| 20260506081042 | 23 | 201 | 11.3 | 14.5 | 0.00 | 0.00 | 0.00 | 96 | 1009.1 |
| 20260506080528 | 23 | 182 | 12.9 | 17.7 | 0.00 | 0.00 | 0.00 | 95 | 1009.1 |
| 20260506073020 | 23 | 185 | 11.3 | 17.7 | 0.00 | 0.00 | 0.00 | 95 | 1009.3 |
| 20260506072526 | 23 | 201 | 9.7 | 17.7 | 0.00 | 0.00 | 0.00 | 95 | 1009.4 |
| 20260506072033 | 23 | 201 | 11.3 | 17.7 | 0.00 | 0.00 | 0.00 | 95 | 1009.5 |
| 20260506071541 | 23 | 183 | 12.9 | 19.3 | 0.00 | 0.00 | 0.00 | 95 | 1009.4 |
| 20260506071028 | 23 | 180 | 16.1 | 25.7 | 0.00 | 0.00 | 0.00 | 95 | 1009.3 |
| 20260506070517 | 23 | 185 | 12.9 | 17.7 | 0.00 | 0.00 | 0.00 | 95 | 1009.3 |
| 20260506062021 | 23 | 181 | 11.3 | 17.7 | 0.00 | 0.00 | 0.00 | 95 | 1009.3 |
| 20260506061527 | 23 | 148 | 11.3 | 16.1 | 0.00 | 0.00 | 0.00 | 95 | 1009.3 |
| 20260506061016 | 23 | 184 | 8.0 | 11.3 | 0.00 | 0.00 | 0.00 | 95 | 1009.3 |
| 20260506060523 | 23 | 175 | 11.3 | 16.1 | 0.00 | 0.00 | 0.00 | 95 | 1009.3 |
| 20260506051022 | 24 | 161 | 11.3 | 19.3 | 0.00 | 0.00 | 0.00 | 95 | 1009.3 |
| 20260506050529 | 24 | 165 | 11.3 | 16.1 | 0.00 | 0.00 | 0.00 | 95 | 1009.3 |
| 20260506045030 | 24 | 192 | 9.7 | 12.9 | 0.00 | 0.00 | 0.00 | 95 | 1009.3 |
| 20260506044518 | 24 | 162 | 8.0 | 12.9 | 0.00 | 0.00 | 0.00 | 95 | 1009.3 |
| 20260506044045 | 24 | 174 | 11.3 | 14.5 | 0.00 | 0.00 | 0.00 | 95 | 1009.3 |
| 20260506043532 | 24 | 190 | 9.7 | 12.9 | 0.00 | 0.00 | 0.00 | 95 | 1009.1 |
| 20260506043020 | 24 | 174 | 11.3 | 19.3 | 0.00 | 0.00 | 0.00 | 95 | 1009.1 |
| 20260506042526 | 24 | 176 | 9.7 | 14.5 | 0.00 | 0.00 | 0.00 | 94 | 1009.2 |
| 20260506042015 | 24 | 173 | 9.7 | 14.5 | 0.00 | 0.00 | 0.00 | 94 | 1009.3 |
| 20260506041522 | 24 | 186 | 8.0 | 14.5 | 0.00 | 0.00 | 0.00 | 94 | 1009.2 |
| 20260506041028 | 24 | 181 | 9.7 | 19.3 | 0.00 | 0.00 | 0.00 | 94 | 1009.1 |
| 20260506040516 | 24 | 175 | 8.0 | 16.1 | 0.00 | 0.00 | 0.00 | 94 | 1009.1 |
| 20260506040023 | 24 | 180 | 9.7 | 14.5 | 0.00 | 0.00 | 0.00 | 94 | 1008.9 |
| 20260506035529 | 24 | 233 | 8.0 | 12.9 | 0.00 | 0.00 | 0.00 | 93 | 1008.9 |
| 20260506035018 | 24 | 189 | 9.7 | 12.9 | 0.00 | 0.00 | 0.00 | 93 | 1008.8 |
| 20260506034525 | 25 | 196 | 6.4 | 9.7 | 0.00 | 0.00 | 0.00 | 93 | 1008.8 |
| 20260506034112 | 25 | 176 | 9.7 | 19.3 | 0.00 | 0.00 | 0.00 | 92 | 1008.8 |
| 20260506033519 | 25 | 202 | 8.0 | 11.3 | 0.00 | 0.00 | 0.00 | 92 | 1008.8 |
| 20260506033106 | 25 | 192 | 8.0 | 12.9 | 0.00 | 0.00 | 0.00 | 91 | 1008.8 |
| 20260506032533 | 25 | 159 | 6.4 | 11.3 | 0.00 | 0.00 | 0.00 | 91 | 1008.6 |
| 20260506032041 | 25 | 168 | 9.7 | 11.3 | 0.00 | 0.00 | 0.00 | 90 | 1008.6 |
| 20260506031528 | 25 | 171 | 9.7 | 11.3 | 0.00 | 0.00 | 0.00 | 90 | 1008.5 |
| 20260506031016 | 25 | 165 | 8.0 | 9.7 | 0.00 | 0.00 | 0.00 | 89 | 1008.4 |
| 20260506030522 | 25 | 158 | 8.0 | 12.9 | 0.00 | 0.00 | 0.00 | 89 | 1008.4 |
| 20260506030029 | 25 | 171 | 9.7 | 14.5 | 0.00 | 0.00 | 0.00 | 89 | 1008.3 |
| 20260506025517 | 25 | 183 | 4.8 | 8.0 | 0.00 | 0.00 | 0.00 | 89 | 1008.3 |
| 20260506025024 | 25 | 167 | 6.4 | 8.0 | 0.00 | 0.00 | 0.00 | 88 | 1008.2 |
| 20260506024530 | 25 | 151 | 6.4 | 11.3 | 0.00 | 0.00 | 0.00 | 88 | 1008.1 |
| 20260506024019 | 25 | 180 | 6.4 | 11.3 | 0.00 | 0.00 | 0.00 | 88 | 1008.1 |
| 20260506023525 | 25 | 179 | 6.4 | 9.7 | 0.00 | 0.00 | 0.00 | 87 | 1007.9 |
| 20260506023032 | 25 | 190 | 8.0 | 9.7 | 0.00 | 0.00 | 0.00 | 87 | 1007.9 |
| 20260506022520 | 25 | 154 | 6.4 | 9.7 | 0.00 | 0.00 | 0.00 | 87 | 1007.8 |
| 20260506022027 | 25 | 163 | 6.4 | 9.7 | 0.00 | 0.00 | 0.00 | 87 | 1007.7 |
| 20260506021515 | 25 | 164 | 8.0 | 9.7 | 0.00 | 0.00 | 0.00 | 87 | 1007.6 |
| 20260506021022 | 26 | 163 | 8.0 | 14.5 | 0.00 | 0.00 | 0.00 | 87 | 1007.5 |
| 20260506020608 | 26 | 161 | 8.0 | 11.3 | 0.00 | 0.00 | 0.00 | 86 | 1007.5 |
| 20260506020017 | 26 | 148 | 8.0 | 11.3 | 0.00 | 0.00 | 0.00 | 86 | 1007.2 |
| 20260506015523 | 26 | 142 | 8.0 | 11.3 | 0.00 | 0.00 | 0.00 | 86 | 1007.2 |
| 20260506015030 | 26 | 146 | 8.0 | 11.3 | 0.00 | 0.00 | 0.00 | 86 | 1007.2 |
| 20260506014518 | 26 | 147 | 8.0 | 11.3 | 0.00 | 0.00 | 0.00 | 85 | 1007.2 |
| 20260506014045 | 26 | 172 | 8.0 | 14.5 | 0.00 | 0.00 | 0.00 | 85 | 1007.2 |
| 20260506013531 | 26 | 152 | 8.0 | 12.9 | 0.00 | 0.00 | 0.00 | 84 | 1007.2 |
| 20260506013019 | 26 | 174 | 8.0 | 9.7 | 0.00 | 0.00 | 0.00 | 84 | 1007.2 |
| 20260506012546 | 26 | 172 | 6.4 | 9.7 | 0.00 | 0.00 | 0.00 | 83 | 1007.1 |
| 20260506012033 | 26 | 154 | 6.4 | 9.7 | 0.00 | 0.00 | 0.00 | 82 | 1007.1 |
| 20260506011521 | 26 | 154 | 6.4 | 9.7 | 0.00 | 0.00 | 0.00 | 82 | 1007.0 |
| 20260506011028 | 27 | 167 | 6.4 | 9.7 | 0.00 | 0.00 | 0.00 | 81 | 1007.0 |
| 20260506010556 | 27 | 165 | 8.0 | 12.9 | 0.00 | 0.00 | 0.00 | 80 | 1007.0 |
| 20260506010022 | 27 | 163 | 8.0 | 11.3 | 0.00 | 0.00 | 0.00 | 80 | 1007.1 |
| 20260506005529 | 27 | 178 | 8.0 | 11.3 | 0.00 | 0.00 | 0.00 | 80 | 1007.1 |
| 20260506005017 | 27 | 206 | 9.7 | 16.1 | 0.00 | 0.00 | 0.00 | 79 | 1007.2 |
| 20260506004524 | 27 | 186 | 8.0 | 11.3 | 0.00 | 0.00 | 0.00 | 78 | 1007.2 |
| 20260506004030 | 28 | 174 | 8.0 | 12.9 | 0.00 | 0.00 | 0.00 | 78 | 1007.2 |
| 20260506003519 | 27 | 190 | 8.0 | 12.9 | 0.00 | 0.00 | 0.00 | 78 | 1007.2 |
| 20260506003026 | 28 | 173 | 8.0 | 11.3 | 0.00 | 0.00 | 0.00 | 78 | 1007.2 |
| 20260506002532 | 28 | 161 | 8.0 | 12.9 | 0.00 | 0.00 | 0.00 | 78 | 1007.3 |
| 20260506002020 | 28 | 194 | 8.0 | 12.9 | 0.00 | 0.00 | 0.00 | 78 | 1007.3 |
| 20260506001527 | 28 | 174 | 8.0 | 12.9 | 0.00 | 0.00 | 0.00 | 77 | 1007.2 |
| 20260506001015 | 28 | 193 | 6.4 | 9.7 | 0.00 | 0.00 | 0.00 | 77 | 1007.2 |
| 20260506000522 | 28 | 175 | 8.0 | 11.3 | 0.00 | 0.00 | 0.00 | 77 | 1007.2 |
| 20260506000029 | 28 | 164 | 6.4 | 9.7 | 0.00 | 0.00 | 0.00 | 76 | 1007.2 |
| 20260505235517 | 28 | 209 | 8.0 | 11.3 | 0.00 | 0.00 | 0.00 | 76 | 1007.2 |
| 20260505235023 | 28 | 202 | 11.3 | 17.7 | 0.00 | 0.00 | 0.00 | 76 | 1007.0 |
| 20260505234530 | 28 | 184 | 11.3 | 16.1 | 0.00 | 0.00 | 0.00 | 76 | 1006.9 |
| 20260505234018 | 28 | 195 | 9.7 | 16.1 | 0.00 | 0.00 | 0.00 | 76 | 1006.9 |
| 20260505233525 | 28 | 169 | 9.7 | 17.7 | 0.00 | 0.00 | 0.00 | 76 | 1006.8 |
| 20260505233031 | 28 | 197 | 9.7 | 12.9 | 0.00 | 0.00 | 0.00 | 76 | 1006.8 |
| 20260505232520 | 28 | 191 | 11.3 | 14.5 | 0.00 | 0.00 | 0.00 | 76 | 1006.8 |
| 20260505232026 | 28 | 186 | 12.9 | 17.7 | 0.00 | 0.00 | 0.00 | 75 | 1006.8 |
| 20260505231533 | 28 | 196 | 9.7 | 14.5 | 0.00 | 0.00 | 0.00 | 75 | 1006.7 |
| 20260505231021 | 28 | 175 | 11.3 | 14.5 | 0.00 | 0.00 | 0.00 | 74 | 1006.7 |
| 20260505230528 | 28 | 177 | 11.3 | 17.7 | 0.00 | 0.00 | 0.00 | 74 | 1006.7 |
| 20260505230036 | 28 | 196 | 11.3 | 14.5 | 0.00 | 0.00 | 0.00 | 74 | 1006.6 |
| 20260505225523 | 28 | 172 | 11.3 | 14.5 | 0.00 | 0.00 | 0.00 | 74 | 1006.6 |
| 20260505225029 | 28 | 177 | 12.9 | 17.7 | 0.00 | 0.00 | 0.00 | 74 | 1006.6 |
| 20260505224518 | 29 | 171 | 11.3 | 16.1 | 0.00 | 0.00 | 0.00 | 73 | 1006.6 |
| 20260505224024 | 29 | 195 | 11.3 | 19.3 | 0.00 | 0.00 | 0.00 | 73 | 1006.6 |
| 20260505223531 | 29 | 185 | 12.9 | 17.7 | 0.00 | 0.00 | 0.00 | 73 | 1006.6 |
| 20260505223019 | 29 | 198 | 11.3 | 14.5 | 0.00 | 0.00 | 0.00 | 73 | 1006.6 |
| 20260505222546 | 29 | 186 | 11.3 | 16.1 | 0.00 | 0.00 | 0.00 | 72 | 1006.5 |
| 20260505222032 | 29 | 178 | 12.9 | 16.1 | 0.00 | 0.00 | 0.00 | 72 | 1006.5 |
| 20260505221521 | 29 | 196 | 11.3 | 16.1 | 0.00 | 0.00 | 0.00 | 72 | 1006.6 |
| 20260505221027 | 29 | 202 | 12.9 | 17.7 | 0.00 | 0.00 | 0.00 | 72 | 1006.7 |
| 20260505220516 | 30 | 193 | 11.3 | 19.3 | 0.00 | 0.00 | 0.00 | 72 | 1006.7 |
| 20260505220022 | 30 | 179 | 12.9 | 17.7 | 0.00 | 0.00 | 0.00 | 72 | 1006.8 |
| 20260505215529 | 30 | 194 | 12.9 | 16.1 | 0.00 | 0.00 | 0.00 | 72 | 1006.8 |
| 20260505215017 | 30 | 191 | 11.3 | 16.1 | 0.00 | 0.00 | 0.00 | 72 | 1006.8 |
| 20260505214524 | 30 | 154 | 12.9 | 16.1 | 0.00 | 0.00 | 0.00 | 73 | 1006.9 |
| 20260505214031 | 30 | 178 | 12.9 | 27.4 | 0.00 | 0.00 | 0.00 | 73 | 1006.9 |
| 20260505213519 | 30 | 160 | 12.9 | 17.7 | 0.00 | 0.00 | 0.00 | 73 | 1007.0 |
| 20260505213045 | 30 | 179 | 11.3 | 17.7 | 0.00 | 0.00 | 0.00 | 72 | 1007.0 |
| 20260505212532 | 30 | 195 | 12.9 | 16.1 | 0.00 | 0.00 | 0.00 | 72 | 1007.2 |
| 20260505212020 | 30 | 175 | 14.5 | 22.5 | 0.00 | 0.00 | 0.00 | 72 | 1007.2 |
| 20260505211547 | 30 | 179 | 12.9 | 20.9 | 0.00 | 0.00 | 0.00 | 71 | 1007.2 |
| 20260505211015 | 30 | 162 | 11.3 | 17.7 | 0.00 | 0.00 | 0.00 | 72 | 1007.2 |
| 20260505210522 | 31 | 168 | 12.9 | 19.3 | 0.00 | 0.00 | 0.00 | 70 | 1007.2 |
| 20260505210028 | 30 | 183 | 11.3 | 16.1 | 0.00 | 0.00 | 0.00 | 70 | 1007.3 |
| 20260505205537 | 30 | 200 | 12.9 | 20.9 | 0.00 | 0.00 | 0.00 | 71 | 1007.3 |
| 20260505205023 | 30 | 233 | 12.9 | 19.3 | 0.00 | 0.00 | 0.00 | 71 | 1007.3 |
| 20260505204530 | 30 | 180 | 11.3 | 16.1 | 0.00 | 0.00 | 0.00 | 71 | 1007.4 |
| 20260505204018 | 30 | 193 | 12.9 | 17.7 | 0.00 | 0.00 | 0.00 | 72 | 1007.4 |
| 20260505203525 | 30 | 193 | 11.3 | 17.7 | 0.00 | 0.00 | 0.00 | 73 | 1007.6 |
| 20260505203052 | 29 | 177 | 14.5 | 20.9 | 0.00 | 0.00 | 0.00 | 73 | 1007.6 |
| 20260505202520 | 29 | 184 | 12.9 | 16.1 | 0.00 | 0.00 | 0.00 | 72 | 1007.7 |
| 20260505202026 | 30 | 165 | 16.1 | 24.1 | 0.00 | 0.00 | 0.00 | 71 | 1007.8 |
| 20260505201553 | 30 | 201 | 12.9 | 22.5 | 0.00 | 0.00 | 0.00 | 72 | 1007.9 |
| 20260505201021 | 30 | 189 | 16.1 | 20.9 | 0.00 | 0.00 | 0.00 | 72 | 1008.0 |
| 20260505200528 | 30 | 198 | 14.5 | 20.9 | 0.00 | 0.00 | 0.00 | 72 | 1008.0 |
| 20260505200016 | 30 | 225 | 11.3 | 16.1 | 0.00 | 0.00 | 0.00 | 72 | 1008.1 |
| 20260505195523 | 30 | 200 | 12.9 | 24.1 | 0.00 | 0.00 | 0.00 | 72 | 1008.1 |
| 20260505195030 | 30 | 176 | 11.3 | 17.7 | 0.00 | 0.00 | 0.00 | 72 | 1008.3 |
| 20260505194518 | 30 | 224 | 12.9 | 24.1 | 0.00 | 0.00 | 0.00 | 72 | 1008.4 |
| 20260505194024 | 30 | 192 | 11.3 | 19.3 | 0.00 | 0.00 | 0.00 | 72 | 1008.5 |
| 20260505193531 | 29 | 189 | 11.3 | 16.1 | 0.00 | 0.00 | 0.00 | 73 | 1008.6 |
| 20260505193019 | 29 | 201 | 12.9 | 17.7 | 0.00 | 0.00 | 0.00 | 72 | 1008.6 |
| 20260505192526 | 28 | 221 | 11.3 | 16.1 | 0.00 | 0.00 | 0.00 | 73 | 1008.6 |
| 20260505192032 | 29 | 226 | 11.3 | 17.7 | 0.00 | 0.00 | 0.00 | 73 | 1008.6 |
| 20260505191520 | 28 | 208 | 11.3 | 19.3 | 0.00 | 0.00 | 0.00 | 73 | 1008.6 |
| 20260505191047 | 28 | 173 | 14.5 | 24.1 | 0.00 | 0.00 | 0.00 | 74 | 1008.8 |
| 20260505190515 | 28 | 192 | 16.1 | 20.9 | 0.00 | 0.00 | 0.00 | 75 | 1008.8 |
| 20260505190022 | 28 | 200 | 12.9 | 20.9 | 0.00 | 0.00 | 0.00 | 75 | 1008.9 |
| 20260505185528 | 27 | 190 | 14.5 | 24.1 | 0.00 | 0.00 | 0.00 | 76 | 1008.9 |
| 20260505185017 | 28 | 171 | 12.9 | 17.7 | 0.00 | 0.00 | 0.00 | 75 | 1009.0 |
| 20260505184524 | 28 | 224 | 11.3 | 16.1 | 0.00 | 0.00 | 0.00 | 75 | 1009.1 |
| 20260505184030 | 27 | 178 | 12.9 | 19.3 | 0.00 | 0.00 | 0.00 | 76 | 1009.1 |
| 20260505183538 | 27 | 201 | 14.5 | 20.9 | 0.00 | 0.00 | 0.00 | 78 | 1009.3 |
| 20260505183025 | 27 | 203 | 14.5 | 17.7 | 0.00 | 0.00 | 0.00 | 78 | 1009.3 |
| 20260505182533 | 27 | 213 | 14.5 | 19.3 | 0.00 | 0.00 | 0.00 | 78 | 1009.3 |
| 20260505182020 | 27 | 178 | 14.5 | 19.3 | 0.00 | 0.00 | 0.00 | 78 | 1009.3 |
| 20260505181526 | 27 | 185 | 14.5 | 22.5 | 0.00 | 0.00 | 0.00 | 79 | 1009.3 |
| 20260505181015 | 26 | 201 | 12.9 | 19.3 | 0.00 | 0.00 | 0.00 | 80 | 1009.3 |
| 20260505180602 | 26 | 176 | 17.7 | 25.7 | 0.00 | 0.00 | 0.00 | 81 | 1009.3 |
| 20260505180028 | 26 | 182 | 14.5 | 20.9 | 0.00 | 0.00 | 0.00 | 81 | 1009.7 |
| 20260505175556 | 26 | 211 | 14.5 | 20.9 | 0.00 | 0.00 | 0.00 | 81 | 1009.7 |
| 20260505175023 | 26 | 213 | 11.3 | 17.7 | 0.00 | 0.00 | 0.00 | 82 | 1009.7 |
| 20260505174550 | 25 | 193 | 14.5 | 17.7 | 0.00 | 0.00 | 0.00 | 83 | 1009.7 |
| 20260505174038 | 25 | 188 | 14.5 | 20.9 | 0.00 | 0.00 | 0.00 | 83 | 1009.7 |
| 20260505173524 | 25 | 195 | 14.5 | 20.9 | 0.00 | 0.00 | 0.00 | 84 | 1009.8 |
| 20260505173031 | 25 | 216 | 12.9 | 19.3 | 0.00 | 0.00 | 0.00 | 84 | 1009.8 |
| 20260505172540 | 25 | 202 | 9.7 | 17.7 | 0.00 | 0.00 | 0.00 | 84 | 1009.8 |
| 20260505172026 | 25 | 236 | 11.3 | 19.3 | 0.00 | 0.00 | 0.00 | 86 | 1009.8 |
| 20260505171532 | 24 | 208 | 12.9 | 17.7 | 0.00 | 0.00 | 0.00 | 86 | 1009.9 |
| 20260505171021 | 24 | 226 | 11.3 | 16.1 | 0.00 | 0.00 | 0.00 | 87 | 1010.0 |
| 20260505170527 | 24 | 198 | 12.9 | 20.9 | 0.00 | 0.00 | 0.00 | 87 | 1010.0 |
| 20260505170016 | 24 | 207 | 12.9 | 19.3 | 0.00 | 0.00 | 0.00 | 87 | 1009.8 |
| 20260505165522 | 24 | 184 | 12.9 | 17.7 | 0.00 | 0.00 | 0.00 | 87 | 1009.8 |
| 20260505165029 | 23 | 206 | 14.5 | 24.1 | 0.00 | 0.00 | 0.00 | 88 | 1009.8 |
| 20260505164517 | 23 | 194 | 14.5 | 16.1 | 0.00 | 0.00 | 0.00 | 88 | 1009.8 |
| 20260505164024 | 23 | 189 | 12.9 | 17.7 | 0.00 | 0.00 | 0.00 | 88 | 1009.8 |
| 20260505163530 | 23 | 200 | 12.9 | 16.1 | 0.00 | 0.00 | 0.00 | 88 | 1009.8 |
| 20260505163018 | 23 | 201 | 9.7 | 14.5 | 0.00 | 0.00 | 0.00 | 89 | 1009.8 |
| 20260505162525 | 23 | 202 | 9.7 | 17.7 | 0.00 | 0.00 | 0.00 | 90 | 1009.8 |
| 20260505161540 | 22 | 208 | 11.3 | 14.5 | 0.00 | 0.00 | 0.00 | 91 | 1009.8 |
| 20260505161027 | 23 | 181 | 12.9 | 20.9 | 0.00 | 0.00 | 0.00 | 91 | 1009.8 |
| 20260505160515 | 23 | 204 | 11.3 | 16.1 | 0.00 | 0.00 | 0.00 | 92 | 1009.8 |
| 20260505153024 | 22 | 178 | 8.0 | 12.9 | 0.00 | 0.00 | 0.00 | 94 | 1009.8 |
| 20260505152531 | 22 | 215 | 11.3 | 17.7 | 0.00 | 0.00 | 0.00 | 94 | 1009.8 |
| 20260505152019 | 22 | 246 | 11.3 | 17.7 | 0.00 | 0.00 | 0.00 | 94 | 1009.8 |
| 20260505151526 | 22 | 205 | 9.7 | 14.5 | 0.00 | 0.00 | 0.00 | 95 | 1009.8 |
| 20260505151053 | 22 | 204 | 11.3 | 17.7 | 0.00 | 0.00 | 0.00 | 95 | 1009.8 |
| 20260505150521 | 21 | 219 | 12.9 | 17.7 | 0.00 | 0.00 | 0.00 | 95 | 1009.8 |
| 20260505140527 | 21 | 200 | 12.9 | 16.1 | 0.00 | 0.00 | 0.00 | 95 | 1009.1 |
| 20260505125016 | 21 | 206 | 12.9 | 16.1 | 0.00 | 0.00 | 0.00 | 96 | 1008.5 |
| 20260505124523 | 21 | 208 | 11.3 | 20.9 | 0.00 | 0.00 | 0.00 | 96 | 1008.4 |
| 20260505124049 | 21 | 200 | 12.9 | 19.3 | 0.00 | 0.00 | 0.00 | 96 | 1008.4 |
| 20260505123538 | 21 | 191 | 9.7 | 17.7 | 0.00 | 0.00 | 0.00 | 96 | 1008.2 |
| 20260505123104 | 21 | 190 | 11.3 | 14.5 | 0.00 | 0.00 | 0.00 | 96 | 1008.2 |
| 20260505122531 | 21 | 189 | 12.9 | 17.7 | 0.00 | 0.00 | 0.00 | 97 | 1008.1 |
| 20260505122019 | 21 | 202 | 9.7 | 14.5 | 0.00 | 0.00 | 0.00 | 97 | 1008.0 |
| 20260505121526 | 21 | 186 | 12.9 | 19.3 | 0.00 | 0.00 | 0.00 | 97 | 1008.0 |
| 20260505121032 | 21 | 194 | 11.3 | 16.1 | 0.00 | 0.00 | 0.00 | 97 | 1007.9 |
| 20260505120521 | 21 | 220 | 11.3 | 19.3 | 0.00 | 0.00 | 0.00 | 97 | 1007.9 |
| 20260505120027 | 20 | 208 | 11.3 | 17.7 | 0.00 | 0.00 | 0.00 | 97 | 1007.6 |
| 20260505115515 | 20 | 187 | 16.1 | 20.9 | 0.00 | 0.00 | 0.00 | 97 | 1007.6 |
| 20260505115022 | 20 | 188 | 14.5 | 22.5 | 0.00 | 0.00 | 0.00 | 97 | 1007.7 |
| 20260505114529 | 20 | 179 | 12.9 | 17.7 | 0.00 | 0.00 | 0.00 | 97 | 1007.8 |
| 20260505114017 | 21 | 186 | 12.9 | 17.7 | 0.00 | 0.00 | 0.00 | 97 | 1007.8 |
| 20260505113624 | 21 | 183 | 14.5 | 20.9 | 0.00 | 0.00 | 0.00 | 97 | 1007.9 |
| 20260505113030 | 21 | 185 | 12.9 | 20.9 | 0.00 | 0.00 | 0.00 | 96 | 1007.9 |
| 20260505112518 | 21 | 187 | 11.3 | 16.1 | 0.00 | 0.00 | 0.00 | 96 | 1007.8 |
| 20260505112025 | 21 | 204 | 12.9 | 17.7 | 0.00 | 0.00 | 0.00 | 96 | 1007.7 |
| 20260505111532 | 21 | 209 | 16.1 | 22.5 | 0.00 | 0.00 | 0.00 | 96 | 1007.8 |
| 20260505111020 | 21 | 184 | 12.9 | 24.1 | 0.00 | 0.00 | 0.00 | 96 | 1007.9 |
| 20260505110526 | 21 | 227 | 12.9 | 16.1 | 0.00 | 0.00 | 0.00 | 96 | 1007.9 |